User: anonymous   Login
Location: Feigenhofen
(48.4939°N, 10.7793°E)
Time: 14:45:34
(UTC+00:00)
Language:

Cosmos 1603 - Orbit

View from above orbital plane
View from above orbital plane
View from above satellite
View from above satellite

Ground track
Ground track

The orbit data is extracted from the following two-line orbital elements,

1 15333U 84106A   22221.42459552 -.00000290  00000-0 -12700-3 0  9995
2 15333  71.0269 117.0375 0021451 230.8272 129.0946 14.14150117953680
Epoch (UTC): 09 August 2022 10:11:25
Eccentricity: 0.0021451
inclination: 71.0269°
perigee height: 830 km
apogee height: 861 km
right ascension of ascending node: 117.0375°
argument of perigee: 230.8272°
revolutions per day: 14.14150117
mean anomaly at epoch: 129.0946°
orbit number at epoch: 95368

The dashed part of the orbit path shows where the satellite is in the earth's shadow,  

DLR